Time,TemperatureF,DewpointF,PressureIn,WindDirection,WindDirectionDegrees,WindSpeedMPH,WindSpeedGustMPH,Humidity,HourlyPrecipIn,Conditions,Clouds,dailyrainin,SoftwareType,DateUTC
2013-02-18 00:03:00,45.6,34.5,29.95,NE,45,1.0,-999.0,65,0.00,,,0.00,Wunderground v.1.15,2013-02-18 08:03:00,
2013-02-18 00:08:00,45.6,34.5,29.95,NE,45,1.0,-999.0,65,0.00,,,0.00,Wunderground v.1.15,2013-02-18 08:08:00,
2013-02-18 00:13:00,45.6,34.5,29.95,NE,45,1.0,-999.0,65,0.00,,,0.00,Wunderground v.1.15,2013-02-18 08:13:00,
2013-02-18 00:18:00,45.6,34.5,29.95,NE,45,1.0,-999.0,65,0.00,,,0.00,Wunderground v.1.15,2013-02-18 08:18:00,
2013-02-18 00:23:00,45.6,34.5,29.95,NE,45,1.0,-999.0,65,0.00,,,0.00,Wunderground v.1.15,2013-02-18 08:23:00,
2013-02-18 00:28:00,45.6,34.5,29.95,NE,45,1.0,-999.0,65,0.00,,,0.00,Wunderground v.1.15,2013-02-18 08:28:00,
2013-02-18 00:33:00,45.6,34.5,29.95,NE,45,1.0,-999.0,65,0.00,,,0.00,Wunderground v.1.15,2013-02-18 08:33:00,
2013-02-18 00:38:00,45.6,34.5,29.95,NE,45,1.0,-999.0,65,0.00,,,0.00,Wunderground v.1.15,2013-02-18 08:38:00,
2013-02-18 00:43:00,45.6,34.5,29.95,NE,45,1.0,-999.0,65,0.00,,,0.00,Wunderground v.1.15,2013-02-18 08:43:00,
2013-02-18 00:48:00,45.3,34.2,29.95,East,90,0.0,-999.0,65,0.00,,,0.00,Wunderground v.1.15,2013-02-18 08:48:00,
2013-02-18 00:53:00,45.3,34.2,29.95,East,90,0.0,-999.0,65,0.00,,,0.00,Wunderground v.1.15,2013-02-18 08:53:00,
2013-02-18 00:58:00,45.3,34.2,29.95,East,90,0.0,-999.0,65,0.00,,,0.00,Wunderground v.1.15,2013-02-18 08:58:00,
2013-02-18 01:03:00,45.3,34.2,29.95,East,90,0.0,-999.0,65,0.00,,,0.00,Wunderground v.1.15,2013-02-18 09:03:00,
2013-02-18 01:08:00,45.3,34.2,29.95,East,90,0.0,-999.0,65,0.00,,,0.00,Wunderground v.1.15,2013-02-18 09:08:00,
2013-02-18 01:13:00,45.3,34.2,29.95,East,90,0.0,-999.0,65,0.00,,,0.00,Wunderground v.1.15,2013-02-18 09:13:00,
2013-02-18 01:18:00,45.6,34.1,29.95,East,90,0.0,-999.0,64,0.00,,,0.00,Wunderground v.1.15,2013-02-18 09:18:00,
2013-02-18 01:23:00,45.6,34.1,29.95,East,90,0.0,-999.0,64,0.00,,,0.00,Wunderground v.1.15,2013-02-18 09:23:00,
2013-02-18 01:28:00,45.6,34.1,29.95,East,90,0.0,-999.0,64,0.00,,,0.00,Wunderground v.1.15,2013-02-18 09:28:00,
2013-02-18 01:33:00,45.6,34.1,29.95,East,90,0.0,-999.0,64,0.00,,,0.00,Wunderground v.1.15,2013-02-18 09:33:00,
2013-02-18 01:38:00,45.6,34.1,29.95,East,90,0.0,-999.0,64,0.00,,,0.00,Wunderground v.1.15,2013-02-18 09:38:00,
2013-02-18 01:43:00,45.6,34.1,29.95,East,90,0.0,-999.0,64,0.00,,,0.00,Wunderground v.1.15,2013-02-18 09:43:00,
2013-02-18 01:48:00,44.7,33.6,29.95,East,90,0.0,-999.0,65,0.00,,,0.00,Wunderground v.1.15,2013-02-18 09:48:00,
2013-02-18 01:53:00,44.7,33.6,29.95,East,90,0.0,-999.0,65,0.00,,,0.00,Wunderground v.1.15,2013-02-18 09:53:00,
2013-02-18 01:58:00,44.7,33.6,29.95,East,90,0.0,-999.0,65,0.00,,,0.00,Wunderground v.1.15,2013-02-18 09:58:00,
2013-02-18 02:03:00,44.7,33.6,29.95,East,90,0.0,-999.0,65,0.00,,,0.00,Wunderground v.1.15,2013-02-18 10:03:00,
2013-02-18 02:08:00,44.7,33.6,29.95,East,90,0.0,-999.0,65,0.00,,,0.00,Wunderground v.1.15,2013-02-18 10:08:00,
2013-02-18 02:13:00,44.7,33.6,29.95,East,90,0.0,-999.0,65,0.00,,,0.00,Wunderground v.1.15,2013-02-18 10:13:00,
2013-02-18 02:18:00,43.0,33.5,29.95,East,90,0.0,-999.0,69,0.00,,,0.00,Wunderground v.1.15,2013-02-18 10:18:00,
2013-02-18 02:23:00,43.0,33.5,29.95,East,90,0.0,-999.0,69,0.00,,,0.00,Wunderground v.1.15,2013-02-18 10:23:00,
2013-02-18 02:28:00,43.0,33.5,29.95,East,90,0.0,-999.0,69,0.00,,,0.00,Wunderground v.1.15,2013-02-18 10:28:00,
2013-02-18 02:33:00,43.0,33.5,29.95,East,90,0.0,-999.0,69,0.00,,,0.00,Wunderground v.1.15,2013-02-18 10:33:00,
2013-02-18 02:38:00,43.0,33.5,29.95,East,90,0.0,-999.0,69,0.00,,,0.00,Wunderground v.1.15,2013-02-18 10:38:00,
2013-02-18 02:43:00,43.0,33.5,29.95,East,90,0.0,-999.0,69,0.00,,,0.00,Wunderground v.1.15,2013-02-18 10:43:00,
2013-02-18 02:48:00,42.3,33.2,29.94,East,90,1.0,-999.0,70,0.00,,,0.00,Wunderground v.1.15,2013-02-18 10:48:00,
2013-02-18 02:53:00,42.3,33.2,29.94,East,90,1.0,-999.0,70,0.00,,,0.00,Wunderground v.1.15,2013-02-18 10:53:00,
2013-02-18 02:58:00,42.3,33.2,29.94,East,90,1.0,-999.0,70,0.00,,,0.00,Wunderground v.1.15,2013-02-18 10:58:00,
2013-02-18 03:03:00,42.3,33.2,29.94,East,90,1.0,-999.0,70,0.00,,,0.00,Wunderground v.1.15,2013-02-18 11:03:00,
2013-02-18 03:08:00,42.3,33.2,29.94,East,90,1.0,-999.0,70,0.00,,,0.00,Wunderground v.1.15,2013-02-18 11:08:00,
2013-02-18 03:13:00,42.3,33.2,29.94,East,90,1.0,-999.0,70,0.00,,,0.00,Wunderground v.1.15,2013-02-18 11:13:00,
2013-02-18 03:18:00,41.7,33.0,29.93,East,90,2.0,-999.0,71,0.00,,,0.00,Wunderground v.1.15,2013-02-18 11:18:00,
2013-02-18 03:23:00,41.7,33.0,29.93,East,90,2.0,-999.0,71,0.00,,,0.00,Wunderground v.1.15,2013-02-18 11:23:00,
2013-02-18 03:28:00,41.7,33.0,29.93,East,90,2.0,-999.0,71,0.00,,,0.00,Wunderground v.1.15,2013-02-18 11:28:00,
2013-02-18 03:33:00,41.7,33.0,29.93,East,90,2.0,-999.0,71,0.00,,,0.00,Wunderground v.1.15,2013-02-18 11:33:00,
2013-02-18 03:38:00,41.7,33.0,29.93,East,90,2.0,-999.0,71,0.00,,,0.00,Wunderground v.1.15,2013-02-18 11:38:00,
2013-02-18 03:43:00,41.7,33.0,29.93,East,90,2.0,-999.0,71,0.00,,,0.00,Wunderground v.1.15,2013-02-18 11:43:00,
2013-02-18 03:48:00,41.3,32.6,29.92,East,90,2.0,-999.0,71,0.00,,,0.00,Wunderground v.1.15,2013-02-18 11:48:00,
2013-02-18 03:53:00,41.3,32.6,29.92,East,90,2.0,-999.0,71,0.00,,,0.00,Wunderground v.1.15,2013-02-18 11:53:00,
2013-02-18 03:58:00,41.3,32.6,29.92,East,90,2.0,-999.0,71,0.00,,,0.00,Wunderground v.1.15,2013-02-18 11:58:00,
2013-02-18 04:03:00,41.3,32.6,29.92,East,90,2.0,-999.0,71,0.00,,,0.00,Wunderground v.1.15,2013-02-18 12:03:00,
2013-02-18 04:08:00,41.3,32.6,29.92,East,90,2.0,-999.0,71,0.00,,,0.00,Wunderground v.1.15,2013-02-18 12:08:00,
2013-02-18 04:13:00,41.3,32.6,29.92,East,90,2.0,-999.0,71,0.00,,,0.00,Wunderground v.1.15,2013-02-18 12:13:00,
2013-02-18 04:18:00,41.9,32.5,29.92,East,90,2.0,-999.0,69,0.00,,,0.00,Wunderground v.1.15,2013-02-18 12:18:00,
2013-02-18 04:23:00,41.9,32.5,29.92,East,90,2.0,-999.0,69,0.00,,,0.00,Wunderground v.1.15,2013-02-18 12:23:00,
2013-02-18 04:28:00,41.9,32.5,29.92,East,90,2.0,-999.0,69,0.00,,,0.00,Wunderground v.1.15,2013-02-18 12:28:00,
2013-02-18 04:33:00,41.9,32.5,29.92,East,90,2.0,-999.0,69,0.00,,,0.00,Wunderground v.1.15,2013-02-18 12:33:00,
2013-02-18 04:38:00,41.9,32.5,29.92,East,90,2.0,-999.0,69,0.00,,,0.00,Wunderground v.1.15,2013-02-18 12:38:00,
2013-02-18 04:43:00,41.9,32.5,29.92,East,90,2.0,-999.0,69,0.00,,,0.00,Wunderground v.1.15,2013-02-18 12:43:00,
2013-02-18 04:48:00,41.9,32.5,29.93,East,90,2.0,-999.0,69,0.00,,,0.00,Wunderground v.1.15,2013-02-18 12:48:00,
2013-02-18 04:53:00,41.9,32.5,29.93,East,90,2.0,-999.0,69,0.00,,,0.00,Wunderground v.1.15,2013-02-18 12:53:00,
2013-02-18 04:58:00,41.9,32.5,29.93,East,90,2.0,-999.0,69,0.00,,,0.00,Wunderground v.1.15,2013-02-18 12:58:00,
2013-02-18 05:03:00,41.9,32.5,29.93,East,90,2.0,-999.0,69,0.00,,,0.00,Wunderground v.1.15,2013-02-18 13:03:00,
2013-02-18 05:08:00,41.9,32.5,29.93,East,90,2.0,-999.0,69,0.00,,,0.00,Wunderground v.1.15,2013-02-18 13:08:00,
2013-02-18 05:13:00,41.9,32.5,29.93,East,90,2.0,-999.0,69,0.00,,,0.00,Wunderground v.1.15,2013-02-18 13:13:00,
2013-02-18 05:18:00,42.5,32.3,29.93,East,90,1.0,-999.0,67,0.00,,,0.00,Wunderground v.1.15,2013-02-18 13:18:00,
2013-02-18 05:23:00,42.5,32.3,29.93,East,90,1.0,-999.0,67,0.00,,,0.00,Wunderground v.1.15,2013-02-18 13:23:00,
2013-02-18 05:28:00,42.5,32.3,29.93,East,90,1.0,-999.0,67,0.00,,,0.00,Wunderground v.1.15,2013-02-18 13:28:00,
2013-02-18 05:33:00,42.5,32.3,29.93,East,90,1.0,-999.0,67,0.00,,,0.00,Wunderground v.1.15,2013-02-18 13:33:00,
2013-02-18 05:38:00,42.5,32.3,29.93,East,90,1.0,-999.0,67,0.00,,,0.00,Wunderground v.1.15,2013-02-18 13:38:00,
2013-02-18 05:48:00,42.7,32.1,29.93,East,90,1.0,-999.0,66,0.00,,,0.00,Wunderground v.1.15,2013-02-18 13:48:00,
2013-02-18 05:53:00,42.7,32.1,29.93,East,90,1.0,-999.0,66,0.00,,,0.00,Wunderground v.1.15,2013-02-18 13:53:00,
2013-02-18 05:58:00,42.7,32.1,29.93,East,90,1.0,-999.0,66,0.00,,,0.00,Wunderground v.1.15,2013-02-18 13:58:00,
2013-02-18 06:03:00,42.7,32.1,29.93,East,90,1.0,-999.0,66,0.00,,,0.00,Wunderground v.1.15,2013-02-18 14:03:00,
2013-02-18 06:08:00,42.7,32.1,29.93,East,90,1.0,-999.0,66,0.00,,,0.00,Wunderground v.1.15,2013-02-18 14:08:00,
2013-02-18 06:13:00,42.7,32.1,29.93,East,90,1.0,-999.0,66,0.00,,,0.00,Wunderground v.1.15,2013-02-18 14:13:00,
2013-02-18 06:18:00,42.7,32.1,29.93,East,90,1.0,-999.0,66,0.00,,,0.00,Wunderground v.1.15,2013-02-18 14:18:00,
2013-02-18 06:23:00,42.7,32.1,29.93,East,90,1.0,-999.0,66,0.00,,,0.00,Wunderground v.1.15,2013-02-18 14:23:00,
2013-02-18 06:28:00,42.7,32.1,29.93,East,90,1.0,-999.0,66,0.00,,,0.00,Wunderground v.1.15,2013-02-18 14:28:00,
2013-02-18 06:33:00,42.7,32.1,29.93,East,90,1.0,-999.0,66,0.00,,,0.00,Wunderground v.1.15,2013-02-18 14:33:00,
2013-02-18 06:38:00,42.7,32.1,29.93,East,90,1.0,-999.0,66,0.00,,,0.00,Wunderground v.1.15,2013-02-18 14:38:00,
2013-02-18 06:43:00,42.7,32.1,29.93,East,90,1.0,-999.0,66,0.00,,,0.00,Wunderground v.1.15,2013-02-18 14:43:00,
2013-02-18 06:48:00,43.1,32.1,29.93,East,90,2.0,-999.0,65,0.00,,,0.00,Wunderground v.1.15,2013-02-18 14:48:00,
2013-02-18 06:53:00,43.1,32.1,29.93,East,90,2.0,-999.0,65,0.00,,,0.00,Wunderground v.1.15,2013-02-18 14:53:00,
2013-02-18 06:58:00,43.1,32.1,29.93,East,90,2.0,-999.0,65,0.00,,,0.00,Wunderground v.1.15,2013-02-18 14:58:00,
2013-02-18 07:03:00,43.1,32.1,29.93,East,90,2.0,-999.0,65,0.00,,,0.00,Wunderground v.1.15,2013-02-18 15:03:00,
2013-02-18 07:08:00,43.1,32.1,29.93,East,90,2.0,-999.0,65,0.00,,,0.00,Wunderground v.1.15,2013-02-18 15:08:00,
2013-02-18 07:28:00,43.9,32.5,29.93,East,90,2.0,-999.0,64,0.00,,,0.00,Wunderground v.1.15,2013-02-18 15:28:00,
2013-02-18 07:40:00,44.0,32.6,29.94,East,89,2.0,2.0,64,0.00,,,0.00,Wunderground v.1.15,2013-02-18 15:40:00,
2013-02-18 07:43:00,43.9,32.5,29.93,East,90,2.0,-999.0,64,0.00,,,0.00,Wunderground v.1.15,2013-02-18 15:43:00,
2013-02-18 07:48:00,44.1,32.7,29.94,East,90,2.0,-999.0,64,0.00,,,0.00,Wunderground v.1.15,2013-02-18 15:48:00,
2013-02-18 07:53:00,44.1,32.7,29.94,East,90,2.0,-999.0,64,0.00,,,0.00,Wunderground v.1.15,2013-02-18 15:53:00,
2013-02-18 07:58:00,44.1,32.7,29.94,East,90,2.0,-999.0,64,0.00,,,0.00,Wunderground v.1.15,2013-02-18 15:58:00,
2013-02-18 08:03:00,44.1,32.7,29.94,East,90,2.0,-999.0,64,0.00,,,0.00,Wunderground v.1.15,2013-02-18 16:03:00,
2013-02-18 08:08:00,44.1,32.7,29.94,East,90,2.0,-999.0,64,0.00,,,0.00,Wunderground v.1.15,2013-02-18 16:08:00,
2013-02-18 08:13:00,44.1,32.7,29.94,East,90,2.0,-999.0,64,0.00,,,0.00,Wunderground v.1.15,2013-02-18 16:13:00,
2013-02-18 08:18:00,46.3,33.6,29.94,East,90,2.0,-999.0,61,0.00,,,0.00,Wunderground v.1.15,2013-02-18 16:18:00,
2013-02-18 08:23:00,46.3,33.6,29.94,East,90,2.0,-999.0,61,0.00,,,0.00,Wunderground v.1.15,2013-02-18 16:23:00,
2013-02-18 08:28:00,46.3,33.6,29.94,East,90,2.0,-999.0,61,0.00,,,0.00,Wunderground v.1.15,2013-02-18 16:28:00,
2013-02-18 08:33:00,46.3,33.6,29.94,East,90,2.0,-999.0,61,0.00,,,0.00,Wunderground v.1.15,2013-02-18 16:33:00,
2013-02-18 09:10:00,50.9,37.1,29.95,ESE,109,2.0,4.0,59,0.00,,,0.00,Wunderground v.1.15,2013-02-18 17:10:00,
2013-02-18 09:40:00,53.0,38.2,29.94,SSW,195,3.0,3.0,57,0.00,,,0.00,Wunderground v.1.15,2013-02-18 17:40:00,
2013-02-18 09:50:00,52.5,38.6,29.94,SE,125,3.0,5.0,59,0.00,,,0.00,Wunderground v.1.15,2013-02-18 17:50:00,
2013-02-18 10:00:00,52.2,38.7,29.94,ESE,118,2.0,2.0,60,0.00,,,0.00,Wunderground v.1.15,2013-02-18 18:00:00,
2013-02-18 10:10:00,52.7,38.8,29.93,SSE,159,2.0,2.0,59,0.00,,,0.00,Wunderground v.1.15,2013-02-18 18:10:00,
2013-02-18 10:20:00,52.8,39.7,29.94,East,95,2.0,4.0,61,0.00,,,0.00,Wunderground v.1.15,2013-02-18 18:20:00,
2013-02-18 10:30:00,53.6,39.2,29.94,SSW,195,2.0,3.0,58,0.00,,,0.00,Wunderground v.1.15,2013-02-18 18:30:00,
2013-02-18 10:40:00,54.0,39.5,29.94,WSW,246,2.0,2.0,58,0.00,,,0.00,Wunderground v.1.15,2013-02-18 18:40:00,
2013-02-18 10:50:00,54.4,39.5,29.94,SE,136,3.0,4.0,57,0.00,,,0.00,Wunderground v.1.15,2013-02-18 18:50:00,
2013-02-18 11:00:00,54.1,39.6,29.94,SSE,167,3.0,4.0,58,0.00,,,0.00,Wunderground v.1.15,2013-02-18 19:00:00,
2013-02-18 11:10:00,54.5,39.6,29.94,South,181,3.0,3.0,57,0.00,,,0.00,Wunderground v.1.15,2013-02-18 19:10:00,
2013-02-18 11:20:00,54.9,39.5,29.93,SSE,163,3.0,3.0,56,0.00,,,0.00,Wunderground v.1.15,2013-02-18 19:20:00,
2013-02-18 11:30:00,55.3,39.9,29.93,SE,145,2.0,6.0,56,0.00,,,0.00,Wunderground v.1.15,2013-02-18 19:30:00,
2013-02-18 11:40:00,55.4,39.5,29.93,South,173,3.0,3.0,55,0.00,,,0.00,Wunderground v.1.15,2013-02-18 19:40:00,
2013-02-18 11:50:00,55.0,39.6,29.92,SSE,162,4.0,4.0,56,0.00,,,0.00,Wunderground v.1.15,2013-02-18 19:50:00,
2013-02-18 12:10:00,55.6,38.7,29.91,South,172,3.0,3.0,53,0.00,,,0.00,Wunderground v.1.15,2013-02-18 20:10:00,
2013-02-18 12:20:00,56.0,39.6,29.91,SSE,164,2.0,4.0,54,0.00,,,0.00,Wunderground v.1.15,2013-02-18 20:20:00,
2013-02-18 12:30:00,55.4,38.1,29.90,East,94,4.0,4.0,52,0.00,,,0.00,Wunderground v.1.15,2013-02-18 20:30:00,
2013-02-18 12:40:00,54.8,38.5,29.90,SSE,149,4.0,4.0,54,0.00,,,0.00,Wunderground v.1.15,2013-02-18 20:40:00,
2013-02-18 12:50:00,54.6,38.3,29.90,SE,138,3.0,3.0,54,0.00,,,0.00,Wunderground v.1.15,2013-02-18 20:50:00,
2013-02-18 13:00:00,55.0,39.1,29.90,ESE,108,3.0,3.0,55,0.00,,,0.00,Wunderground v.1.15,2013-02-18 21:00:00,
2013-02-18 13:10:00,55.8,38.4,29.90,SE,128,3.0,9.0,52,0.00,,,0.00,Wunderground v.1.15,2013-02-18 21:10:00,
2013-02-18 13:20:00,56.5,40.5,29.89,SSE,167,3.0,3.0,55,0.00,,,0.00,Wunderground v.1.15,2013-02-18 21:20:00,
2013-02-18 13:30:00,56.6,41.1,29.89,South,191,2.0,9.0,56,0.00,,,0.00,Wunderground v.1.15,2013-02-18 21:30:00,
2013-02-18 14:40:00,54.5,39.1,29.86,SSE,148,3.0,9.0,56,0.00,,,0.00,Wunderground v.1.15,2013-02-18 22:40:00,
2013-02-18 14:50:00,54.7,39.3,29.86,SE,125,3.0,3.0,56,0.00,,,0.00,Wunderground v.1.15,2013-02-18 22:50:00,
2013-02-18 15:00:00,54.2,39.7,29.86,SSE,152,3.0,9.0,58,0.00,,,0.00,Wunderground v.1.15,2013-02-18 23:00:00,
2013-02-18 15:10:00,53.8,39.8,29.86,ESE,122,3.0,3.0,59,0.00,,,0.00,Wunderground v.1.15,2013-02-18 23:10:00,
2013-02-18 15:20:00,53.3,38.9,29.85,SSE,153,3.0,9.0,58,0.00,,,0.00,Wunderground v.1.15,2013-02-18 23:20:00,
2013-02-18 15:30:00,52.5,39.0,29.84,SE,136,6.0,6.0,60,0.00,,,0.00,Wunderground v.1.15,2013-02-18 23:30:00,
2013-02-18 15:40:00,52.0,39.4,29.84,East,101,5.0,6.0,62,0.00,,,0.00,Wunderground v.1.15,2013-02-18 23:40:00,
2013-02-18 15:50:00,52.1,40.3,29.84,ESE,122,3.0,3.0,64,0.00,,,0.00,Wunderground v.1.15,2013-02-18 23:50:00,
2013-02-18 16:10:00,51.4,40.8,29.84,SSE,162,2.0,2.0,67,0.00,,,0.00,Wunderground v.1.15,2013-02-19 00:10:00,
2013-02-18 16:20:00,50.7,41.3,29.84,SSW,205,1.0,2.0,70,0.00,,,0.00,Wunderground v.1.15,2013-02-19 00:20:00,
2013-02-18 16:30:00,50.0,41.3,29.84,SW,215,1.0,1.0,72,0.00,,,0.00,Wunderground v.1.15,2013-02-19 00:30:00,
2013-02-18 16:40:00,49.2,41.6,29.84,South,188,2.0,2.0,75,0.00,,,0.00,Wunderground v.1.15,2013-02-19 00:40:00,
2013-02-18 16:50:00,48.5,41.3,29.84,WNW,291,2.0,2.0,76,0.00,,,0.00,Wunderground v.1.15,2013-02-19 00:50:00,
2013-02-18 17:00:00,46.4,40.6,29.84,West,271,2.0,2.0,80,0.00,,,0.00,Wunderground v.1.15,2013-02-19 01:00:00,
2013-02-18 17:10:00,44.8,39.6,29.84,WSW,239,2.0,2.0,82,0.00,,,0.00,Wunderground v.1.15,2013-02-19 01:10:00,
2013-02-18 17:20:00,44.0,39.2,29.85,West,260,1.0,9.0,83,0.00,,,0.00,Wunderground v.1.15,2013-02-19 01:20:00,
2013-02-18 17:30:00,43.5,39.0,29.85,SW,219,1.0,1.0,84,0.00,,,0.00,Wunderground v.1.15,2013-02-19 01:30:00,
2013-02-18 17:40:00,43.3,38.8,29.85,SW,235,1.0,9.0,84,0.00,,,0.00,Wunderground v.1.15,2013-02-19 01:40:00,
2013-02-18 17:50:00,42.9,38.7,29.86,WSW,253,1.0,1.0,85,0.00,,,0.00,Wunderground v.1.15,2013-02-19 01:50:00,
2013-02-18 18:00:00,42.6,38.4,29.86,South,176,1.0,1.0,85,0.00,,,0.00,Wunderground v.1.15,2013-02-19 02:00:00,
2013-02-18 18:10:00,42.3,38.1,29.87,SSW,210,1.0,1.0,85,0.00,,,0.00,Wunderground v.1.15,2013-02-19 02:10:00,
2013-02-18 18:20:00,42.2,38.0,29.87,SSW,195,0.0,9.0,85,0.00,,,0.00,Wunderground v.1.15,2013-02-19 02:20:00,
2013-02-18 18:30:00,42.1,37.9,29.88,SSE,152,0.0,9.0,85,0.00,,,0.00,Wunderground v.1.15,2013-02-19 02:30:00,
2013-02-18 18:40:00,42.2,38.0,29.88,SE,124,0.0,9.0,85,0.00,,,0.00,Wunderground v.1.15,2013-02-19 02:40:00,
2013-02-18 18:50:00,42.1,37.6,29.88,SE,143,1.0,9.0,84,0.00,,,0.00,Wunderground v.1.15,2013-02-19 02:50:00,
2013-02-18 19:57:00,41.9,37.1,29.86,ESE,113,5.0,-999.0,83,0.00,,,0.00,Wunderground v.1.15,2013-02-19 03:57:00,
2013-02-18 20:02:00,41.9,37.1,29.86,ESE,113,5.0,-999.0,83,0.00,,,0.00,Wunderground v.1.15,2013-02-19 04:02:00,
2013-02-18 20:07:00,41.9,37.1,29.86,ESE,113,5.0,-999.0,83,0.00,,,0.00,Wunderground v.1.15,2013-02-19 04:07:00,
2013-02-18 20:12:00,41.9,37.1,29.86,ESE,113,5.0,-999.0,83,0.00,,,0.00,Wunderground v.1.15,2013-02-19 04:12:00,
2013-02-18 20:17:00,41.9,37.1,29.87,ESE,113,4.0,-999.0,83,0.00,,,0.00,Wunderground v.1.15,2013-02-19 04:17:00,
2013-02-18 20:22:00,41.9,37.1,29.87,ESE,113,4.0,-999.0,83,0.00,,,0.00,Wunderground v.1.15,2013-02-19 04:22:00,
2013-02-18 20:27:00,41.9,37.1,29.87,ESE,113,4.0,-999.0,83,0.00,,,0.00,Wunderground v.1.15,2013-02-19 04:27:00,
2013-02-18 20:32:00,41.9,37.1,29.87,ESE,113,4.0,-999.0,83,0.00,,,0.00,Wunderground v.1.15,2013-02-19 04:32:00,
2013-02-18 20:37:00,41.9,37.1,29.87,ESE,113,4.0,-999.0,83,0.00,,,0.00,Wunderground v.1.15,2013-02-19 04:37:00,
2013-02-18 20:42:00,41.9,37.1,29.87,ESE,113,4.0,-999.0,83,0.00,,,0.00,Wunderground v.1.15,2013-02-19 04:42:00,
2013-02-18 20:47:00,41.3,36.5,29.87,SE,135,3.0,-999.0,83,0.00,,,0.00,Wunderground v.1.15,2013-02-19 04:47:00,
2013-02-18 20:52:00,41.3,36.5,29.87,SE,135,3.0,-999.0,83,0.00,,,0.00,Wunderground v.1.15,2013-02-19 04:52:00,
2013-02-18 20:57:00,41.3,36.5,29.87,SE,135,3.0,-999.0,83,0.00,,,0.00,Wunderground v.1.15,2013-02-19 04:57:00,
2013-02-18 21:02:00,41.3,36.5,29.87,SE,135,3.0,-999.0,83,0.00,,,0.00,Wunderground v.1.15,2013-02-19 05:02:00,
2013-02-18 21:07:00,41.3,36.5,29.87,SE,135,3.0,-999.0,83,0.00,,,0.00,Wunderground v.1.15,2013-02-19 05:07:00,
2013-02-18 21:12:00,41.3,36.5,29.87,SE,135,3.0,-999.0,83,0.00,,,0.00,Wunderground v.1.15,2013-02-19 05:12:00,
2013-02-18 21:17:00,40.2,36.1,29.86,SE,135,4.0,-999.0,85,0.00,,,0.00,Wunderground v.1.15,2013-02-19 05:17:00,
2013-02-18 21:22:00,40.2,36.1,29.86,SE,135,4.0,-999.0,85,0.00,,,0.00,Wunderground v.1.15,2013-02-19 05:22:00,
2013-02-18 21:27:00,40.2,36.1,29.86,SE,135,4.0,-999.0,85,0.00,,,0.00,Wunderground v.1.15,2013-02-19 05:27:00,
2013-02-18 21:32:00,40.2,36.1,29.86,SE,135,4.0,-999.0,85,0.00,,,0.00,Wunderground v.1.15,2013-02-19 05:32:00,
2013-02-18 21:37:00,40.2,36.1,29.86,SE,135,4.0,-999.0,85,0.00,,,0.00,Wunderground v.1.15,2013-02-19 05:37:00,
2013-02-18 21:42:00,40.2,36.1,29.86,SE,135,4.0,-999.0,85,0.00,,,0.00,Wunderground v.1.15,2013-02-19 05:42:00,
2013-02-18 21:47:00,39.7,35.9,29.86,ESE,113,7.0,-999.0,86,0.00,,,0.00,Wunderground v.1.15,2013-02-19 05:47:00,
2013-02-18 21:52:00,39.7,35.9,29.86,ESE,113,7.0,-999.0,86,0.00,,,0.00,Wunderground v.1.15,2013-02-19 05:52:00,
2013-02-18 21:57:00,39.7,35.9,29.86,ESE,113,7.0,-999.0,86,0.00,,,0.00,Wunderground v.1.15,2013-02-19 05:57:00,
2013-02-18 22:02:00,39.7,35.9,29.86,ESE,113,7.0,-999.0,86,0.00,,,0.00,Wunderground v.1.15,2013-02-19 06:02:00,
2013-02-18 22:07:00,39.7,35.9,29.86,ESE,113,7.0,-999.0,86,0.00,,,0.00,Wunderground v.1.15,2013-02-19 06:07:00,
2013-02-18 22:12:00,39.7,35.9,29.86,ESE,113,7.0,-999.0,86,0.00,,,0.00,Wunderground v.1.15,2013-02-19 06:12:00,
2013-02-18 22:17:00,39.4,35.3,29.87,SE,135,7.0,-999.0,85,0.00,,,0.00,Wunderground v.1.15,2013-02-19 06:17:00,
2013-02-18 22:22:00,39.4,35.3,29.87,SE,135,7.0,-999.0,85,0.00,,,0.00,Wunderground v.1.15,2013-02-19 06:22:00,
2013-02-18 22:27:00,39.4,35.3,29.87,SE,135,7.0,-999.0,85,0.00,,,0.00,Wunderground v.1.15,2013-02-19 06:27:00,
2013-02-18 22:32:00,39.4,35.3,29.87,SE,135,7.0,-999.0,85,0.00,,,0.00,Wunderground v.1.15,2013-02-19 06:32:00,
2013-02-18 22:37:00,39.4,35.3,29.87,SE,135,7.0,-999.0,85,0.00,,,0.00,Wunderground v.1.15,2013-02-19 06:37:00,
2013-02-18 22:42:00,39.4,35.3,29.87,SE,135,7.0,-999.0,85,0.00,,,0.00,Wunderground v.1.15,2013-02-19 06:42:00,
2013-02-18 22:47:00,39.1,34.7,29.86,SE,135,6.0,-999.0,84,0.00,,,0.00,Wunderground v.1.15,2013-02-19 06:47:00,
2013-02-18 22:52:00,39.1,34.7,29.86,SE,135,6.0,-999.0,84,0.00,,,0.00,Wunderground v.1.15,2013-02-19 06:52:00,
2013-02-18 22:57:00,39.1,34.7,29.86,SE,135,6.0,-999.0,84,0.00,,,0.00,Wunderground v.1.15,2013-02-19 06:57:00,
2013-02-18 23:02:00,39.1,34.7,29.86,SE,135,6.0,-999.0,84,0.00,,,0.00,Wunderground v.1.15,2013-02-19 07:02:00,
2013-02-18 23:07:00,39.1,34.7,29.86,SE,135,6.0,-999.0,84,0.00,,,0.00,Wunderground v.1.15,2013-02-19 07:07:00,
2013-02-18 23:12:00,39.1,34.7,29.86,SE,135,6.0,-999.0,84,0.00,,,0.00,Wunderground v.1.15,2013-02-19 07:12:00,
2013-02-18 23:17:00,38.6,34.8,29.86,SE,135,5.0,-999.0,86,0.00,,,0.00,Wunderground v.1.15,2013-02-19 07:17:00,
2013-02-18 23:22:00,38.6,34.8,29.86,SE,135,5.0,-999.0,86,0.00,,,0.00,Wunderground v.1.15,2013-02-19 07:22:00,
2013-02-18 23:27:00,38.6,34.8,29.86,SE,135,5.0,-999.0,86,0.00,,,0.00,Wunderground v.1.15,2013-02-19 07:27:00,
2013-02-18 23:32:00,38.6,34.8,29.86,SE,135,5.0,-999.0,86,0.00,,,0.00,Wunderground v.1.15,2013-02-19 07:32:00,
2013-02-18 23:37:00,38.6,34.8,29.86,SE,135,5.0,-999.0,86,0.00,,,0.00,Wunderground v.1.15,2013-02-19 07:37:00,
2013-02-18 23:42:00,38.6,34.8,29.86,SE,135,5.0,-999.0,86,0.00,,,0.00,Wunderground v.1.15,2013-02-19 07:42:00,
2013-02-18 23:47:00,38.4,35.4,29.87,SE,135,5.0,-999.0,89,0.00,,,0.00,Wunderground v.1.15,2013-02-19 07:47:00,
2013-02-18 23:52:00,38.4,35.4,29.87,SE,135,5.0,-999.0,89,0.00,,,0.00,Wunderground v.1.15,2013-02-19 07:52:00,
2013-02-18 23:57:00,38.4,35.4,29.87,SE,135,5.0,-999.0,89,0.00,,,0.00,Wunderground v.1.15,2013-02-19 07:57:00,